Wind_Speed
4 6 1 5 3 4 8 6 3 3 6 4 4 7 8 8 11 11 11 11 10 11 15 26 24 21 19 17 14 11 13 11 8 5 3 3 8 15 17 19 15 16 17 18
7 1 4 7 9 10 9 8 6 4 10 6 6 6 7 3 4 11 13 10 9 7 7 16 20 20 20 18 16 14 10 9 7 6 7 5 3 5 12 13 16 22 22 19
6 4 7 9 8 8 4 6 3 3 5 5 3 6 5 3 7 7 7 10 8 11 9 7 15 19 19 19 18 11 9 8 6 3 3 6 8 7 11 16 16 12 12 11
4 2 9 8 6 4 3 3 3 5 4 2 3 4 5 5 7 8 8 8 8 7 5 7 13 9 5 6 9 9 10 11 12 11 11 9 8 10 12 15 20 20 18 15
5 3 5 6 2 1 5 3 3 3 3 2 4 3 7 6 4 1 1 4 5 6 6 3 10 16 13 13 13 11 9 12 11 12 12 12 13 13 14 16 19 22 22 18
3 0 4 3 3 7 2 5 6 5 3 3 4 4 6 3 2 4 5 6 5 6 7 11 12 4 4 6 6 8 8 3 3 7 11 15 17 18 19 21 22 22 25 23
7 5 2 3 6 8 12 7 5 6 5 4 5 6 4 5 5 7 7 5 7 6 6 5 8 10 2 5 5 8 12 15 13 13 13 12 14 15 16 22 24 27 25 21
3 5 1 1 3 1 2 6 5 2 1 5 6 3 4 5 4 5 6 8 6 6 1 3 7 13 12 14 19 18 15 15 15 15 17 19 22 22 21 20 20 18 20 22
3 2 2 4 2 5 4 3 4 4 2 2 2 2 5 2 3 3 7 7 5 3 6 8 11 17 19 14 13 12 14 16 17 19 23 25 25 23 22 22 22 21 17 16
1 1 2 2 2 2 5 3 3 3 0 3 3 1 4 5 5 6 6 6 4 6 7 6 10 12 12 11 10 12 16 19 20 19 18 20 21 19 20 21 15 14 16 20
3 4 6 2 2 4 2 2 5 4 5 5 1 5 6 4 5 7 4 3 1 4 3 3 5 9 8 7 8 14 14 14 16 17 19 22 22 23 23 23 24 27 29 27
2 4 2 6 6 3 4 5 5 5 4 1 4 6 5 8 6 7 4 4 5 5 0 3 6 8 7 8 13 15 14 14 19 27 32 30 25 24 23 22 22 22 20 19
2 2 3 9 6 6 3 3 4 4 3 6 5 6 2 5 7 3 3 3 2 3 3 6 9 6 7 12 14 13 14 24 29 26 25 26 28 27 24 21 23 22 22 22
7 3 6 6 5 2 5 6 7 6 4 4 6 5 4 6 4 4 4 2 2 5 6 5 4 6 13 16 10 17 26 28 26 25 26 26 26 24 24 24 24 24 23 22
4 3 3 5 6 4 6 9 9 6 7 6 5 6 1 3 2 4 3 3 6 6 6 4 4 8 14 8 16 21 25 26 24 23 22 24 26 27 27 25 25 24 24 23
2 2 1 4 7 6 7 10 8 6 3 5 6 3 3 3 3 3 1 3 5 5 5 5 6 11 8 14 18 22 26 27 22 22 24 25 26 26 27 26 26 25 25 24
6 4 3 4 5 6 7 6 3 3 1 4 2 4 3 2 6 3 6 6 5 3 3 5 6 8 12 16 17 23 26 26 23 23 26 26 26 27 28 27 26 25 24 23
6 5 3 4 3 2 7 2 3 7 3 4 6 4 2 0 3 3 3 3 4 1 3 5 10 12 11 15 21 26 24 25 24 25 26 27 28 28 29 27 26 25 24 23
5 5 1 2 2 6 6 2 4 4 1 1 5 1 2 3 2 3 3 4 3 2 3 7 9 12 13 18 23 26 22 24 24 25 28 30 31 30 29 26 25 25 23 22
5 5 5 3 2 5 6 2 4 4 3 4 4 1 0 2 4 4 4 3 3 2 7 8 12 17 16 21 24 22 22 23 23 27 31 33 33 31 30 27 24 22 20 19
3 1 6 3 4 7 7 5 3 4 7 6 5 3 3 1 4 4 0 1 5 6 10 11 20 18 17 22 22 20 21 21 26 32 31 33 34 33 28 24 23 20 18 15
8 7 4 3 3 7 8 3 7 7 4 6 5 6 4 5 2 1 4 3 7 10 11 16 17 19 20 19 20 20 21 27 29 30 30 31 34 26 27 24 22 20 17 16
2 7 5 8 7 6 8 7 5 8 6 5 7 4 7 6 1 2 2 4 6 7 13 13 15 18 19 20 20 20 24 27 28 28 29 31 34 27 27 23 23 20 18 14
2 4 3 4 3 5 7 4 6 6 6 6 6 7 6 5 3 4 3 2 4 10 12 13 16 18 19 21 23 22 25 26 26 26 28 30 28 29 27 23 21 20 19 19
5 2 3 2 5 3 4 7 8 9 8 10 7 7 6 6 4 4 3 2 4 8 8 14 17 18 18 22 22 24 25 26 24 25 25 26 27 25 25 23 20 19 17 20
3 5 3 6 8 6 5 5 7 8 8 9 8 5 6 9 6 6 5 2 5 7 7 15 19 17 19 21 21 23 25 25 24 23 23 24 25 24 23 21 22 19 17 16
Wind_Direction
12 58 288 237 222 64 90 82 81 262 343 77 186 162 191 179 125 141 136 133 133 137 154 138 144 148 153 156 158 158 151 149 169 186 122 56 344 334 329 330 332 340 340 342
26 124 263 55 62 73 67 51 357 306 351 47 152 226 221 87 153 153 142 137 142 135 151 157 161 165 175 176 183 180 162 147 122 86 47 17 354 336 332 326 317 307 290 313
130 218 66 84 46 51 49 85 353 267 329 347 55 339 181 49 116 112 129 144 152 159 165 172 177 186 188 185 190 172 153 150 157 175 231 290 290 311 318 318 324 317 327 322
125 289 96 72 74 110 25 254 343 324 47 278 86 258 308 171 112 144 155 153 159 164 158 180 200 187 185 232 200 168 181 196 207 216 222 218 245 276 298 303 298 294 297 302
283 121 86 77 67 342 230 327 310 260 265 35 359 73 299 25 139 194 49 111 93 124 163 54 73 119 99 107 144 184 209 212 225 237 249 260 248 253 264 255 265 275 288 289
243 294 53 148 106 78 359 8 353 32 89 40 260 137 335 319 265 47 87 102 148 66 67 64 72 84 39 136 137 135 124 123 289 303 288 275 266 264 255 253 255 269 290 286
13 356 359 51 32 8 38 44 347 4 12 225 346 59 219 262 129 133 140 135 87 78 57 22 360 351 157 162 73 26 42 41 30 21 8 3 358 337 306 288 281 283 278 270
118 336 9 12 131 164 332 129 143 265 304 279 346 122 235 219 136 119 116 110 90 70 12 324 342 20 60 57 60 54 24 19 10 1 351 340 328 319 310 307 306 302 283 276
87 309 37 98 128 112 323 42 184 115 350 37 252 24 353 212 153 89 83 96 67 19 347 352 55 80 84 64 56 44 23 8 356 342 329 321 314 310 309 307 298 290 279 274
176 19 327 291 63 7 135 180 40 14 309 306 296 203 223 230 237 87 90 89 48 15 28 49 74 92 74 57 31 6 351 340 330 320 313 314 313 310 304 304 301 306 305 294
63 107 285 33 119 227 21 23 61 113 139 171 277 282 218 221 118 118 118 203 188 79 63 44 77 89 83 62 22 349 336 325 327 327 323 319 314 307 300 299 299 299 300 287
14 140 268 240 272 208 173 175 130 116 260 180 153 266 48 124 130 126 155 52 61 93 64 334 80 74 53 13 344 340 344 342 338 327 321 322 321 318 314 308 308 306 293 289
173 10 11 345 357 358 17 261 165 115 74 206 145 259 62 73 72 71 69 43 166 222 347 52 80 53 6 344 342 349 346 336 335 334 327 325 324 321 313 301 306 301 292 292
90 120 156 193 221 229 294 300 284 138 116 224 216 245 5 33 39 348 346 55 295 358 48 69 58 358 349 345 350 343 340 338 335 333 326 316 318 312 306 302 298 296 292 289
103 184 214 248 256 262 267 273 288 218 209 164 265 137 99 51 353 338 27 13 5 32 44 49 357 338 342 1 343 343 338 334 329 316 314 312 312 311 309 303 300 294 292 290
32 257 252 286 288 295 296 288 279 280 115 131 136 138 176 219 249 75 331 8 38 37 49 6 339 339 352 341 340 339 338 334 320 314 313 313 310 307 302 300 298 293 290 286
151 151 88 268 305 336 322 271 227 125 67 130 130 163 208 352 19 43 7 40 29 72 359 324 327 332 323 336 337 335 336 333 322 319 317 316 313 309 305 301 295 292 289 285
142 124 131 246 4 339 245 249 138 131 128 117 102 117 118 314 322 76 40 78 91 264 327 347 321 313 317 336 340 338 336 332 325 320 319 318 314 309 307 303 298 295 292 286
151 126 118 139 200 284 295 218 170 158 291 69 120 78 33 4 61 7 11 68 148 14 343 316 328 337 325 340 344 336 331 329 325 324 320 317 314 310 309 301 300 298 295 290
79 97 128 138 177 235 239 267 115 95 295 164 126 140 62 85 19 268 315 101 35 328 352 353 352 340 332 342 341 334 329 326 325 323 319 319 318 315 307 306 305 305 303 297
110 44 179 154 227 283 243 155 117 87 240 193 173 153 138 126 194 228 11 88 2 19 16 0 353 353 338 342 339 331 329 326 326 325 323 326 327 320 322 325 331 323 313 308
166 157 200 133 197 275 168 130 161 208 197 182 154 161 132 135 134 20 124 5 25 19 6 356 353 344 341 342 342 332 330 330 334 331 328 330 332 332 343 341 343 346 332 311
145 182 184 172 211 227 193 186 195 161 162 166 149 127 131 131 141 93 167 37 31 16 355 357 351 336 343 346 347 332 334 336 337 333 331 334 332 338 349 350 351 345 343 323
306 160 169 69 268 206 206 229 153 153 140 154 128 136 135 141 117 135 55 81 23 1 353 356 348 342 338 350 350 342 340 342 339 332 333 334 334 341 351 356 359 357 359 356
217 45 152 246 263 121 322 200 154 140 129 124 140 149 152 123 117 125 130 112 7 355 353 357 347 340 343 349 345 347 344 344 337 335 334 335 337 337 344 355 0 1 10 15
177 203 159 232 221 180 218 189 151 138 146 152 144 136 105 121 137 129 149 106 358 354 354 353 351 346 351 348 344 347 348 352 342 334 335 336 337 336 342 344 350 18 15 15
Height
802 826 834 821 813 815 826 834 835 821 810 808 819 824 818 812 818 825 827 829 830 830 830 829 831 832 834 833 833 833 833 834 834 834 833 832 834 833 833 833 831 830 829 828
824 831 810 805 812 822 829 838 842 824 812 816 825 826 817 816 822 821 825 830 831 831 831 829 830 830 831 829 830 830 832 834 835 835 836 834 831 829 832 831 829 830 826 827
830 816 804 814 823 830 836 841 838 838 826 820 822 836 827 818 820 824 825 823 826 829 831 829 829 828 829 829 830 832 833 833 832 832 832 832 832 829 827 827 826 826 823 823
817 804 816 824 827 827 841 823 825 831 843 859 826 873 844 830 830 828 828 828 829 830 828 828 827 830 833 832 833 833 831 829 829 829 828 825 825 825 821 821 822 820 820 818
827 817 821 828 825 817 833 816 824 825 839 843 846 860 857 841 841 837 834 832 830 828 827 830 829 831 831 831 830 830 828 828 827 826 825 823 820 819 816 816 815 816 814 813
815 801 810 817 815 818 818 828 834 846 853 874 847 859 871 856 846 840 836 833 832 833 832 830 831 831 831 829 828 828 828 827 825 823 821 819 816 813 811 809 808 807 808 807
828 826 813 810 827 822 833 861 889 881 888 880 851 864 866 845 838 836 836 833 837 835 833 832 829 828 828 828 829 828 825 822 820 819 817 815 813 811 809 806 804 802 799 799
854 858 825 813 827 836 838 858 892 884 900 883 855 871 865 839 832 830 832 837 837 835 834 832 829 830 829 829 826 824 823 821 819 818 816 814 811 809 806 803 799 796 794 792
854 849 820 818 816 826 842 861 848 872 876 884 873 853 844 836 835 834 839 839 839 836 834 833 833 831 830 829 828 826 823 821 819 817 814 810 807 804 800 796 793 790 788 786
836 858 830 823 818 823 834 836 867 885 886 885 880 865 869 847 841 843 845 844 840 839 838 836 834 831 830 829 827 825 823 821 817 813 810 806 803 799 795 792 788 786 784 782
832 855 850 831 837 845 847 853 861 872 885 901 897 880 848 841 841 846 846 845 842 843 840 835 833 832 831 829 827 824 821 817 813 810 806 802 799 795 791 786 783 781 778 776
838 858 865 848 829 824 831 842 859 896 875 883 891 885 837 845 844 845 846 842 840 839 837 834 833 833 831 828 825 822 819 815 812 807 802 796 792 788 783 780 777 774 771 770
838 865 890 868 851 839 839 833 841 862 875 877 897 881 845 845 845 843 842 841 843 838 835 833 832 831 829 826 823 820 816 813 807 802 796 790 785 780 777 774 771 768 766 764
837 860 869 885 862 852 853 843 839 857 893 870 872 853 848 848 848 844 843 843 839 835 833 832 831 829 827 824 821 817 813 809 803 797 791 785 780 776 772 768 765 762 760 757
846 861 854 853 849 845 845 844 838 846 848 863 851 854 847 845 844 843 843 839 837 835 833 832 830 827 825 821 818 814 810 804 798 793 787 782 776 771 767 762 759 756 753 750
847 860 850 854 842 841 844 837 835 832 832 841 847 853 842 842 843 844 841 838 836 834 833 831 829 826 822 819 815 810 805 799 795 789 783 777 772 766 761 757 753 749 746 744
852 860 869 871 847 848 860 836 825 830 829 833 846 843 843 844 840 839 838 837 835 834 832 831 828 824 820 816 813 808 802 796 791 785 779 773 767 761 755 750 746 742 740 737
852 858 868 872 858 877 842 819 819 831 834 834 840 841 839 838 835 835 837 836 836 833 831 829 825 821 818 815 810 804 798 793 788 782 776 769 762 756 750 744 740 737 733 731
835 855 865 874 878 855 834 823 827 832 839 833 840 837 836 836 835 836 835 834 833 831 830 827 824 820 816 812 807 800 795 791 785 779 773 765 758 751 744 738 734 730 727 725
838 843 861 874 874 875 843 823 822 827 860 833 833 834 835 837 849 845 834 833 832 830 828 826 822 818 814 810 804 798 793 789 783 777 770 762 754 747 739 733 729 725 722 720
852 854 861 871 872 856 829 821 821 853 853 829 827 829 832 838 840 835 834 833 831 829 826 824 820 816 812 807 802 797 792 787 782 775 768 760 751 743 736 730 726 721 718 715
844 860 864 866 866 861 817 822 838 831 826 822 824 827 829 832 832 831 832 830 829 827 825 821 818 814 810 806 801 796 791 786 780 773 767 759 749 742 735 729 724 719 714 712
833 829 842 843 841 815 811 810 810 814 819 820 823 824 828 829 829 829 829 829 827 826 823 820 817 812 808 803 799 795 790 784 779 772 765 757 749 743 735 728 723 717 713 709
811 812 822 824 810 808 808 806 807 811 815 818 820 823 825 825 826 827 827 827 826 824 821 818 815 811 806 802 799 795 790 784 778 771 765 757 750 743 736 729 724 719 715 708
813 807 814 818 808 806 805 804 805 809 813 817 819 820 821 822 824 825 826 825 824 822 820 817 813 810 805 801 798 793 788 783 777 771 765 758 751 744 738 731 726 721 717 711
805 810 820 825 805 805 805 802 802 807 812 813 815 817 818 819 822 824 824 823 822 820 818 815 811 808 803 800 796 792 788 783 778 771 766 760 752 745 739 733 727 723 719 716